Tracking 29528 objects as of 12-Sep-2024
HD Live streaming from Space Station
objects crossing your sky now

USA 317

Track USA 317 now!
10-day predictions


NORAD ID: 48847
Int'l Code: 2021-052B
Perigee: 523.6 km
Apogee: 569.3 km
Inclination: 55.0 °
Period: 95.4 minutes
Semi major axis: 6917 km
RCS: Unknown
Launch date: June 15, 2021
Source: United States (US)
Launch site: WALLOPS ISLAND (WLPIS)
Your satellite tracking list
Your tracking list is empty




NASA's NSSDC Master Catalog

Two Line Element Set (TLE):
1 48847U 21052B   24130.86046371 0.00008000  00000-0  49390-3 0    05
2 48847  54.9942  76.6298 0033000 108.2403 251.8766 15.08984103    02
Source of the keplerian elements: McCants